Tracking 19212 objects as of 17-Jul-2018
HD Live streaming from Space Station
objects crossing your sky now

FENGYUN 1C DEB

Track FENGYUN 1C DEB now!
10-day predictions


NORAD ID: 32432
Int'l Code: 1999-025DAU
Perigee: 636.9 km
Apogee: 991.5 km
Inclination: 98.3 °
Period: 101.0 minutes
Semi major axis: 7185 km
RCS: 0.0125 m2 (small)
Launch date: May 10, 1999
Source: People's Republic of China (PRC)
Launch site: Taiyaun Space Center, China (TSC)

Note: This is SATELLITE DEBRIS
aabbcc
Your satellite tracking list
Your tracking list is empty




NASA's NSSDC Master Catalog

Two Line Element Set (TLE):
1 32432U 99025DAU 18197.10829080 +.00000157 +00000-0 +62273-4 0  9990
2 32432 098.3419 310.9012 0246760 084.1525 278.7725 14.25425210319531
Source of the keplerian elements: AFSPC